Terminal Aerodrome Forecast
Issued by NWS Denver/Boulder, CO

Home | Current Version | Previous Version | Text Only | Print | Product List | Glossary On
Versions: 1 2 3 4 5 6 7 8 9 10 11 12 13 14 15 16 17 18 19 20 21 22 23 24 25 26 27 28 29 30 31 32 33 34 35 36 37 38 39 40 41 42 43 44 45 46 47
000
FTUS45 KBOU 050407 AAC
TAFDEN
TAF AMD
KDEN 050407Z 0504/0606 21009KT P6SM SCT100 BKN220
     FM051100 22012KT P6SM SCT100 BKN180
     FM051900 32014G24KT P6SM SCT070 BKN140
     FM052200 04014G22KT P6SM SCT070 BKN110
     FM060200 04012KT P6SM SCT060 BKN100=

USA.gov is the U.S. government's official web portal to all federal, state and local government web resources and services.